Stations météo

réclame
Mon MeteoGroup
Dunkerque, France (7010): Température de l'air & dewpoint: 10.08.2018 21:00:00 - 16.08.2018 21:00:00 (CEST)Dunkerque, France (7010): Vitesse du vent & gusts: 10.08.2018 21:00:00 - 16.08.2018 21:00:00 (CEST)Dunkerque, France (7010): Direction du vent: 10.08.2018 21:00:00 - 16.08.2018 21:00:00 (CEST)Dunkerque, France (7010): reduced air pressure: 10.08.2018 21:00:00 - 16.08.2018 21:00:00 (CEST)Dunkerque, France (7010): visibility: 10.08.2018 21:00:00 - 16.08.2018 21:00:00 (CEST)Dunkerque, France (7010): Quantités de précipitations: 10.08.2018 21:00:00 - 16.08.2018 21:00:00 (CEST)
Date & Time tt [°C] td [°C] ff [km/h] ff [knt] fx [km/h] fx [knt] dd ppp [hPa] vv [km] rr [mm]
16.08.2018 21:00:00 17,8 15,4 24 13 42 23 WNW 1015,3 - 0,0
16.08.2018 20:00:00 19,1 16,5 29 16 41 22 W 1014,9 - 0,0
16.08.2018 19:00:00 20,6 15,6 14 7 28 15 WSW 1014,4 - 0,0
16.08.2018 18:00:00 21,3 15,6 16 9 34 18 W 1014,5 - 0,0
16.08.2018 17:00:00 22,0 15,4 19 10 49 27 SW 1014,8 - 0,0
16.08.2018 16:00:00 21,1 16,3 35 19 47 26 W 1014,9 - 0,0
16.08.2018 15:00:00 22,8 15,1 20 11 46 25 WSW 1014,7 - 0,0
16.08.2018 14:00:00 23,3 14,3 19 10 35 19 WSW 1014,7 18 0,0
16.08.2018 13:00:00 22,6 15,2 16 9 35 19 WSW 1014,6 - 0,0
16.08.2018 12:00:00 21,7 14,8 21 11 33 18 SW 1014,9 - 0,0
16.08.2018 11:00:00 20,1 15,5 16 9 27 15 SW 1015,2 20 0,0
16.08.2018 10:00:00 18,9 15,8 14 8 25 14 SSW 1015,5 - 0,0
16.08.2018 09:00:00 17,9 15,5 13 7 20 11 SSW 1015,6 - 0,0
16.08.2018 08:00:00 16,2 14,7 11 6 19 11 S 1015,7 13 0,0
16.08.2018 07:00:00 15,7 14,2 14 8 19 11 S 1015,8 - 0,0
16.08.2018 06:00:00 15,1 13,8 10 5 16 9 S 1016,0 - 0,0
16.08.2018 05:00:00 15,5 14,0 14 8 19 11 S 1016,3 20 0,0
16.08.2018 04:00:00 15,6 14,1 14 7 19 10 S 1016,5 - 0,0
16.08.2018 03:00:00 16,2 14,4 12 6 20 11 SSW 1016,9 - 0,0
16.08.2018 02:00:00 16,4 14,4 11 6 18 10 SSW 1017,3 25 0,0
16.08.2018 01:00:00 16,8 14,3 14 8 24 13 SSW 1017,7 - 0,0
16.08.2018 00:00:00 17,3 13,8 12 7 28 15 SSW 1018,0 - 0,0
15.08.2018 23:00:00 17,9 14,0 16 9 29 15 SSW 1018,1 25 0,0
15.08.2018 22:00:00 18,3 13,6 14 8 27 15 SSW 1018,1 - 0,0
15.08.2018 21:00:00 19,1 13,7 16 9 33 18 SW 1018,1 - 0,0
15.08.2018 20:00:00 20,0 13,9 19 10 36 19 SW 1018,0 15 0,0
15.08.2018 19:00:00 20,6 14,0 23 12 41 22 WSW 1018,4 - 0,0
15.08.2018 18:00:00 21,2 14,6 18 10 41 22 SW 1018,7 - 0,0
15.08.2018 17:00:00 21,5 14,6 20 11 42 23 SW 1018,8 - 0,0
15.08.2018 16:00:00 22,0 14,1 22 12 46 25 SW 1019,0 - 0,0
15.08.2018 15:00:00 20,4 15,0 16 8 31 17 WSW 1019,2 - 0,0
15.08.2018 14:00:00 19,8 15,9 16 8 35 19 SW 1019,4 - 0,0
15.08.2018 13:00:00 18,2 15,8 13 7 22 12 SSW 1019,5 - 0,0
15.08.2018 12:00:00 17,6 15,8 14 7 30 16 SSW 1019,7 - 0,0
15.08.2018 11:00:00 18,0 15,3 21 11 32 18 W 1019,9 13 0,0
15.08.2018 10:00:00 18,2 15,3 14 8 36 19 W 1019,5 - 0,0
15.08.2018 09:00:00 18,3 14,2 27 15 35 19 W 1019,2 - 0,0
15.08.2018 08:00:00 18,3 15,2 25 13 39 21 W 1018,8 10 0,0
15.08.2018 07:00:00 18,2 15,8 19 10 29 16 SW 1018,3 - 0,0
15.08.2018 06:00:00 18,4 16,7 15 8 27 15 SSW 1018,2 - 0,0
15.08.2018 05:00:00 18,3 16,8 16 9 25 13 SSW 1018,1 12 0,0
15.08.2018 04:00:00 18,3 16,8 15 8 29 16 SSW 1018,2 - 0,0
15.08.2018 03:00:00 18,5 16,8 18 10 30 16 SW 1018,3 - 0,0
15.08.2018 02:00:00 18,1 16,4 19 10 33 18 SSW 1018,4 - 0,0
15.08.2018 01:00:00 18,2 16,4 18 10 31 17 SW 1018,2 - 0,0
15.08.2018 00:00:00 17,8 15,8 16 9 26 14 SSW 1018,4 - 0,0
14.08.2018 23:00:00 18,0 15,4 16 9 26 14 SW 1018,3 17 0,0
14.08.2018 22:00:00 18,6 14,7 16 9 36 19 SSW 1018,2 - 0,0
14.08.2018 21:00:00 19,7 14,5 20 11 39 21 SW 1017,9 - 0,0
14.08.2018 20:00:00 21,0 15,1 18 10 39 21 WSW 1017,6 16 0,0
14.08.2018 19:00:00 20,7 15,0 20 11 35 19 SW 1017,8 - 0,0
14.08.2018 18:00:00 21,0 16,0 18 10 41 22 WSW 1017,7 - 0,0
14.08.2018 17:00:00 21,1 15,4 27 14 36 20 W 1017,7 16 0,0
14.08.2018 16:00:00 20,9 15,0 24 13 37 20 W 1018,0 - 0,0
14.08.2018 15:00:00 20,8 13,7 27 15 35 19 W 1018,0 - 0,0
14.08.2018 14:00:00 21,2 13,6 22 12 32 17 W 1017,5 20 0,0
14.08.2018 13:00:00 20,2 12,9 22 12 32 17 W 1016,9 - 0,0
14.08.2018 12:00:00 19,7 14,5 19 10 30 16 W 1016,6 - 0,0
14.08.2018 11:00:00 19,1 14,4 18 10 26 14 W 1016,2 15 0,0
14.08.2018 10:00:00 18,4 14,9 18 10 30 16 WNW 1015,7 - 0,0
14.08.2018 09:00:00 18,1 14,6 22 12 34 18 WNW 1015,1 - 0,0
14.08.2018 08:00:00 18,6 15,3 21 11 29 16 WNW 1014,3 - 0,0
14.08.2018 07:00:00 18,7 15,8 17 9 25 14 WNW 1013,5 - 0,0
14.08.2018 06:00:00 18,8 15,8 18 10 30 16 NW 1012,9 - 0,0
14.08.2018 05:00:00 18,9 16,1 21 11 35 19 NW 1012,5 15 0,0
14.08.2018 04:00:00 19,0 16,6 20 11 36 19 NW 1012,1 - 0,0
14.08.2018 03:00:00 19,3 16,7 23 12 40 22 NW 1011,5 - 0,0
14.08.2018 02:00:00 19,4 17,2 24 13 42 23 W 1011,1 15 0,0
14.08.2018 01:00:00 19,1 17,2 15 8 31 17 WSW 1010,5 - 0,0
14.08.2018 00:00:00 19,0 16,8 16 9 37 20 SW 1010,2 - 0,0
13.08.2018 23:00:00 19,1 16,7 18 10 37 20 WSW 1009,8 15 0,0
13.08.2018 22:00:00 19,1 16,7 19 10 36 19 SW 1009,4 - 0,0
13.08.2018 21:00:00 19,1 16,3 20 11 44 24 WSW 1009,3 - 0,0
13.08.2018 20:00:00 19,3 16,5 26 14 54 29 W 1008,4 10 0,0
13.08.2018 19:00:00 20,6 16,8 31 17 48 26 W 1008,0 - 0,0
13.08.2018 18:00:00 20,4 16,6 23 13 55 30 W 1007,4 - 0,0
13.08.2018 17:00:00 21,4 17,0 35 19 48 26 W 1007,8 15 0,0
13.08.2018 16:00:00 21,2 16,8 32 18 48 26 W 1007,1 - 0,0
13.08.2018 15:00:00 20,7 16,3 34 19 49 26 W 1007,2 - 0,0
13.08.2018 14:00:00 19,7 16,2 30 16 41 22 W 1007,0 15 0,0
13.08.2018 13:00:00 18,9 16,1 25 13 37 20 W 1006,7 - 0,2
13.08.2018 12:00:00 18,9 15,8 13 7 31 17 SW 1006,6 - 0,0
13.08.2018 11:00:00 18,6 15,3 18 10 39 21 W 1006,5 15 0,0
13.08.2018 10:00:00 19,0 15,3 23 12 36 19 SW 1006,2 - 0,0
13.08.2018 09:00:00 17,7 16,6 14 8 25 14 SSW 1005,9 - 0,0
13.08.2018 08:00:00 17,4 16,6 15 8 20 11 S 1005,7 8 0,2
13.08.2018 07:00:00 17,4 16,4 11 6 19 10 SSW 1005,7 - 1,6
13.08.2018 06:00:00 17,5 16,2 13 7 18 10 SSW 1005,7 - 0,2
13.08.2018 05:00:00 17,7 16,2 12 6 16 9 S 1005,5 15 0,4
13.08.2018 04:00:00 18,1 16,1 8 4 16 9 SSE 1005,8 - 0,0
13.08.2018 03:00:00 18,5 15,9 11 6 18 10 S 1006,7 - 0,0
13.08.2018 02:00:00 19,1 15,4 12 7 18 10 SSE 1007,3 15 0,0
13.08.2018 01:00:00 19,2 15,7 11 6 17 9 S 1008,1 - 0,0
13.08.2018 00:00:00 19,9 15,9 9 5 12 6 SE 1008,4 - 0,0
12.08.2018 23:00:00 20,5 15,3 4 2 13 7 NW 1008,3 15 0,0
12.08.2018 22:00:00 20,3 14,4 5 3 12 6 S 1008,9 - 0,2
12.08.2018 21:00:00 20,4 14,7 0 0 19 11 N 1009,1 - 0,0
12.08.2018 20:00:00 20,5 15,1 7 4 19 10 WNW 1009,2 15 0,0
12.08.2018 19:00:00 21,0 14,4 19 10 36 19 WNW 1009,4 - 0,0
12.08.2018 18:00:00 25,9 11,3 17 9 29 16 SSW 1009,6 - 0,0
12.08.2018 17:00:00 26,3 10,8 19 10 29 16 SSW 1010,1 15 0,0
12.08.2018 16:00:00 25,9 11,3 19 11 36 20 SSW 1010,9 - 0,0
12.08.2018 15:00:00 26,0 11,4 17 9 36 19 SSW 1011,5 - 0,0
12.08.2018 14:00:00 25,9 11,3 24 13 40 21 SSW 1012,2 - 0,0
12.08.2018 13:00:00 25,0 11,5 26 14 46 25 S 1012,8 - 0,0
12.08.2018 12:00:00 23,9 11,6 26 14 41 22 SSW 1013,5 - 0,0
12.08.2018 11:00:00 22,3 12,0 21 11 36 19 S 1014,0 - 0,0
12.08.2018 10:00:00 20,6 11,2 22 12 33 18 S 1014,2 - 0,0
12.08.2018 09:00:00 18,4 11,2 18 10 29 16 S 1014,9 - 0,0
12.08.2018 08:00:00 18,1 10,9 18 10 29 15 S 1015,1 15 0,0
12.08.2018 07:00:00 17,0 11,5 18 10 28 15 S 1015,4 - 0,0
12.08.2018 06:00:00 17,2 11,9 17 9 29 16 S 1015,7 - 0,0
12.08.2018 05:00:00 17,3 11,8 21 11 29 16 S 1016,3 - 0,0
12.08.2018 04:00:00 18,0 11,5 18 10 26 14 SSE 1017,2 - 0,0
12.08.2018 03:00:00 18,2 11,7 14 8 19 11 SSE 1017,9 - 0,0
12.08.2018 02:00:00 18,1 12,8 12 6 18 10 S 1019,0 - 0,0
12.08.2018 01:00:00 18,3 11,4 11 6 18 10 SSE 1019,6 - 0,0
12.08.2018 00:00:00 18,0 12,0 14 8 18 10 SSE 1020,3 - 0,0
11.08.2018 23:00:00 18,2 10,8 9 5 15 8 SSE 1020,7 15 0,0
11.08.2018 22:00:00 18,5 11,1 10 6 14 7 SSE 1021,1 - 0,0
11.08.2018 21:00:00 19,3 11,6 8 4 18 10 SSW 1021,3 - 0,0
11.08.2018 20:00:00 19,9 11,9 11 6 18 10 WSW 1021,7 15 0,0
11.08.2018 19:00:00 20,1 10,8 11 6 31 17 W 1022,0 - 0,0
11.08.2018 18:00:00 20,0 11,0 13 7 31 17 W 1022,1 - 0,0
11.08.2018 17:00:00 19,8 9,1 14 7 22 12 NW 1022,6 - 0,0
11.08.2018 16:00:00 19,5 9,7 16 9 25 14 WNW 1023,2 - 0,0
11.08.2018 15:00:00 19,7 10,1 15 8 23 12 WNW 1023,5 - 0,0
11.08.2018 14:00:00 19,5 11,0 15 8 22 12 NW 1023,9 - 0,0
11.08.2018 13:00:00 19,2 9,4 13 7 22 12 NW 1024,1 - 0,0
11.08.2018 12:00:00 18,2 9,3 13 7 20 11 WNW 1024,1 - 0,0
11.08.2018 11:00:00 17,9 9,3 15 8 22 12 WNW 1024,1 - 0,0
11.08.2018 10:00:00 17,3 9,5 14 8 23 12 W 1024,1 - 0,0
11.08.2018 09:00:00 16,6 9,3 14 8 24 13 WNW 1023,7 - 0,0
11.08.2018 08:00:00 16,2 10,3 15 8 25 13 WNW 1023,2 15 0,0
11.08.2018 07:00:00 15,6 9,5 17 9 29 16 WNW 1022,6 - 0,0
11.08.2018 06:00:00 15,8 9,0 16 9 27 15 WNW 1022,1 - 0,0
11.08.2018 05:00:00 16,0 9,6 17 9 27 15 WNW 1021,8 - 0,0
11.08.2018 04:00:00 16,2 9,6 17 9 31 17 WNW 1021,7 - 0,0
11.08.2018 03:00:00 16,4 10,5 18 10 31 17 WNW 1021,5 - 0,0
11.08.2018 02:00:00 16,4 10,3 22 12 34 18 WNW 1021,3 15 0,0
11.08.2018 01:00:00 16,3 10,6 20 11 31 17 W 1020,9 - 0,0
11.08.2018 00:00:00 16,0 12,9 15 8 39 21 SW 1020,4 - 0,0
10.08.2018 23:00:00 15,2 12,1 20 11 36 19 SW 1020,1 - 0,6
10.08.2018 22:00:00 14,2 12,2 22 12 38 21 SW 1019,5 - 2,8
10.08.2018 21:00:00 14,5 12,9 19 10 54 29 SW 1019,4 - 5,7

tt = Température de l'air
td = dewpoint
ff = Vitesse du vent
fx = gusts
dd = Direction du vent
ppp = reduced air pressure
vv = visibility
rr = Quantités de précipitations

stations d'obs. à proximité